Flag for Denmark Weather past 2 weeks in Roskilde, Denmark

Now
61 °F

Passing clouds.


Feels Like: 61 °F
Forecast: 53 / 67 °F
Wind: 12 mph from West

Location: Koebenhavn / Roskilde

Current Time: Aug 28, 2015 at 9:47:03 AM

Latest Report: Aug 28, 2015 at 9:20 AM


Visibility: N/A

Pressure: 29.89 "Hg

Humidity: 77%

Dew point: 54 °F

Location of RoskildeLocation

Historic Weather in Roskilde — Graph

°F

Roskilde temperature yesterday

Maximum temperature yesterday: 68 °F (at 1:50 PM)
Minimum temperature yesterday: 57 °F (at 8:50 PM)
Average temperature yesterday: 63 °F

Past Weeks' High & Low Weather Summary

 TemperatureHumidityPressure
High77 °F (Aug 15, 2:20 PM)100% (Aug 22, 12:50 AM)30.36 "Hg (Aug 22, 12:50 AM)
Low54 °F (Aug 26, 3:20 AM)38% (Aug 20, 4:20 PM)29.65 "Hg (Aug 25, 7:20 AM)
Average65 °F75%30.01 "Hg
* Reported Aug 13 8:20 AM — Aug 28 8:20 AM, Roskilde, Weather by CustomWeather, © 2015

Note: Actual official high and low records may vary slightly from our data, if they occured in-between our weather recording intervals... More about our weather records

Advertising

Roskilde weather history for previous 24 hours

 ConditionsComfort  
Time TempWeatherWind HumidityBarometerVisibility
8:20 AM
Fri, Aug 28
59 °FPassing clouds.8 mph88%29.86 "HgN/A
7:50 AM57 °FCool.7 mph94%29.86 "HgN/A
7:20 AM55 °FCool.7 mph100%29.83 "HgN/A
6:50 AM55 °FCool.6 mph94%29.83 "HgN/A
6:20 AM55 °FCool.8 mph94%29.83 "HgN/A
5:50 AM55 °FPassing clouds.7 mph94%29.80 "HgN/A
5:20 AM55 °FPassing clouds.6 mph94%29.80 "HgN/A
4:50 AM57 °FPassing clouds.7 mph94%29.80 "HgN/A
4:20 AM57 °FPartly cloudy.8 mph94%29.80 "HgN/A
3:50 AM59 °FPartly cloudy.7 mph88%29.80 "HgN/A
3:20 AM57 °FMostly cloudy.5 mph94%29.77 "HgN/A
2:50 AM57 °FOvercast.6 mph94%29.77 "HgN/A
2:20 AM57 °FPassing clouds.8 mph88%29.77 "HgN/A
1:50 AM57 °FPassing clouds.7 mph88%29.77 "HgN/A
1:20 AM57 °FPartly cloudy.8 mph88%29.77 "HgN/A
12:50 AM57 °FPartly cloudy.8 mph88%29.77 "HgN/A
12:20 AM57 °FPassing clouds.9 mph88%29.77 "HgN/A
11:50 PM
Thu, Aug 27
57 °FPassing clouds.8 mph88%29.77 "HgN/A
11:20 PM57 °FMostly cloudy.9 mph94%29.77 "HgN/A
10:50 PM57 °FOvercast.12 mph88%29.77 "HgN/A
10:20 PM57 °FPartly cloudy.10 mph88%29.77 "HgN/A
9:50 PM57 °FPassing clouds.12 mph88%29.77 "HgN/A
9:20 PM57 °FPartly cloudy.10 mph82%29.77 "HgN/A
8:50 PM57 °FPartly sunny.10 mph82%29.77 "HgN/A
8:20 PM59 °FPartly sunny.13 mph77%29.77 "HgN/A
7:50 PM61 °FDrizzle. Partly sunny.14 mph77%29.77 "HgN/A
7:20 PM63 °FBroken clouds.12 mph77%29.77 "HgN/A
6:50 PM63 °FPartly sunny.12 mph83%29.77 "HgN/A
6:20 PM64 °FPartly sunny.15 mph78%29.77 "HgN/A
5:50 PM64 °FBroken clouds.16 mph73%29.77 "HgN/A
5:20 PM64 °FPartly sunny.16 mph78%29.77 "HgN/A
4:50 PM66 °FScattered clouds.17 mph73%29.77 "HgN/A
4:20 PM66 °FPassing clouds.16 mph73%29.77 "HgN/A
3:50 PM66 °FScattered clouds.16 mph73%29.74 "HgN/A
3:20 PM66 °FPassing clouds.20 mph68%29.74 "HgN/A
2:50 PM68 °FPassing clouds.20 mph64%29.74 "HgN/A
2:20 PM68 °FScattered clouds.21 mph69%29.74 "HgN/A
1:50 PM68 °FBroken clouds.17 mph78%29.74 "HgN/A
1:20 PM66 °FPassing clouds.15 mph83%29.74 "HgN/A
12:50 PM66 °FMild.15 mph78%29.71 "HgN/A
12:20 PM64 °FScattered clouds.14 mph88%29.74 "HgN/A
11:50 AM63 °FBroken clouds.13 mph94%29.74 "HgN/A
11:20 AM63 °FLight rain. Partly sunny.9 mph88%29.71 "HgN/A
10:50 AM61 °FRain. Partly sunny.12 mph100%29.74 "HgN/A
10:20 AM61 °FRain. Broken clouds.10 mph94%29.74 "HgN/A
9:50 AM61 °FRain. Broken clouds.12 mph94%29.74 "Hg6 mi
9:20 AM61 °FRain. Partly sunny.9 mph94%29.71 "HgN/A
Weather by CustomWeather, © 2015

See weather overviewHow to use our weather pages